Hourly Weather Gogol

Today, 17 May, Monday

Time Temperature Precipitation Wind Pressure Humidity
00:00 +14°C° 0.1 mm 2 mps 743 mmHg 91%
01:00 +13°C° 0.1 mm 2 mps 743 mmHg 92%
02:00 +13°C° 0 mm 2 mps 743 mmHg 94%
03:00 +13°C° 0 mm 2 mps 743 mmHg 94%
04:00 +13°C° 0 mm 2 mps 742 mmHg 93%
05:00 +13°C° 0 mm 2 mps 742 mmHg 92%
06:00 +15°C° 0 mm 2 mps 741 mmHg 88%
07:00 +16°C° 0 mm 2 mps 741 mmHg 84%
08:00 +17°C° 0 mm 2 mps 741 mmHg 80%
09:00 +17°C° 0.8 mm 2 mps 741 mmHg 84%
10:00 +17°C° 0.8 mm 2 mps 740 mmHg 87%
11:00 +17°C° 0.8 mm 2 mps 740 mmHg 90%
12:00 +18°C° 0.3 mm 2 mps 739 mmHg 88%
13:00 +19°C° 0.3 mm 2 mps 739 mmHg 86%
14:00 +20°C° 0.3 mm 2 mps 738 mmHg 84%
15:00 +19°C° 0.4 mm 2 mps 738 mmHg 86%
16:00 +19°C° 0.4 mm 3 mps 738 mmHg 87%
17:00 +18°C° 0.4 mm 4 mps 738 mmHg 88%
18:00 +17°C° 2.1 mm 4 mps 738 mmHg 91%
19:00 +15°C° 2.1 mm 4 mps 738 mmHg 94%
20:00 +14°C° 2.1 mm 3 mps 738 mmHg 97%
21:00 +14°C° 2.4 mm 3 mps 738 mmHg 97%
22:00 +14°C° 2.4 mm 3 mps 737 mmHg 98%
23:00 +14°C° 2.4 mm 3 mps 737 mmHg 98%

Tomorrow, 18 May, Tuesday

Time Temperature Precipitation Wind Pressure Humidity
00:00 +15°C° 0.7 mm 2 mps 737 mmHg 98%
01:00 +14°C° 0.7 mm 2 mps 737 mmHg 98%
02:00 +14°C° 0.7 mm 1 mps 737 mmHg 98%
03:00 +15°C° 0.2 mm 1 mps 737 mmHg 98%
04:00 +15°C° 0.2 mm 1 mps 737 mmHg 98%
05:00 +15°C° 0.2 mm 2 mps 736 mmHg 98%
06:00 +15°C° 0 mm 2 mps 737 mmHg 97%
07:00 +15°C° 0 mm 2 mps 737 mmHg 97%
08:00 +16°C° 0 mm 3 mps 738 mmHg 96%
09:00 +16°C° 0 mm 3 mps 738 mmHg 92%
10:00 +17°C° 0 mm 3 mps 738 mmHg 88%
11:00 +18°C° 0 mm 4 mps 738 mmHg 84%
12:00 +18°C° 0 mm 3 mps 738 mmHg 80%
13:00 +19°C° 0 mm 3 mps 738 mmHg 77%
14:00 +19°C° 0 mm 3 mps 738 mmHg 74%
15:00 +19°C° 0.2 mm 2 mps 738 mmHg 76%
16:00 +19°C° 0.2 mm 2 mps 738 mmHg 78%
17:00 +19°C° 0.2 mm 2 mps 737 mmHg 80%
18:00 +18°C° 0.8 mm 2 mps 737 mmHg 83%
19:00 +18°C° 0.8 mm 1 mps 737 mmHg 87%
20:00 +16°C° 0.8 mm 1 mps 737 mmHg 90%
21:00 +15°C° 0.2 mm 1 mps 737 mmHg 91%
22:00 +15°C° 0.2 mm 2 mps 737 mmHg 92%
23:00 +14°C° 0.2 mm 2 mps 737 mmHg 93%

Day after tomorrow, 19 May, Wednesday

Time Temperature Precipitation Wind Pressure Humidity
00:00 +14°C° 0 mm 2 mps 737 mmHg 94%
01:00 +14°C° 0 mm 2 mps 737 mmHg 95%
02:00 +13°C° 0 mm 2 mps 737 mmHg 95%
03:00 +13°C° 0.2 mm 2 mps 737 mmHg 96%
04:00 +13°C° 0.2 mm 2 mps 737 mmHg 96%
05:00 +13°C° 0.2 mm 2 mps 738 mmHg 97%
06:00 +14°C° 0.1 mm 2 mps 738 mmHg 95%
07:00 +14°C° 0.1 mm 3 mps 738 mmHg 94%
08:00 +16°C° 0.1 mm 3 mps 738 mmHg 92%
09:00 +16°C° 0.1 mm 3 mps 739 mmHg 89%
10:00 +17°C° 0.1 mm 3 mps 739 mmHg 86%
11:00 +18°C° 0.1 mm 3 mps 739 mmHg 83%
12:00 +18°C° 0.6 mm 3 mps 739 mmHg 78%
13:00 +19°C° 0.6 mm 3 mps 739 mmHg 74%
14:00 +20°C° 0.6 mm 4 mps 739 mmHg 69%
15:00 +20°C° 0.5 mm 3 mps 739 mmHg 73%
16:00 +19°C° 0.5 mm 3 mps 739 mmHg 76%
17:00 +19°C° 0.5 mm 2 mps 739 mmHg 80%
18:00 +17°C° 0.5 mm 2 mps 739 mmHg 84%
19:00 +16°C° 0.5 mm 2 mps 740 mmHg 88%
20:00 +15°C° 0.5 mm 1 mps 740 mmHg 93%
21:00 +15°C° 0.1 mm 1 mps 740 mmHg 93%
22:00 +14°C° 0.1 mm 2 mps 739 mmHg 94%
23:00 +14°C° 0.1 mm 2 mps 739 mmHg 95%

20 May, Thursday

Time Temperature Precipitation Wind Pressure Humidity
00:00 +14°C° 0.4 mm 2 mps 739 mmHg 96%
01:00 +14°C° 0.4 mm 2 mps 739 mmHg 97%
02:00 +14°C° 0.4 mm 2 mps 738 mmHg 98%
03:00 +14°C° 1 mm 2 mps 738 mmHg 97%
04:00 +13°C° 1 mm 2 mps 738 mmHg 97%
05:00 +13°C° 1 mm 2 mps 738 mmHg 97%
06:00 +14°C° 0.1 mm 2 mps 738 mmHg 94%
07:00 +14°C° 0.1 mm 2 mps 737 mmHg 92%
08:00 +14°C° 0.1 mm 3 mps 737 mmHg 89%
09:00 +14°C° 0.3 mm 3 mps 737 mmHg 85%
10:00 +16°C° 0.3 mm 3 mps 737 mmHg 80%
11:00 +17°C° 0.3 mm 4 mps 737 mmHg 76%
12:00 +17°C° 0.4 mm 4 mps 736 mmHg 76%
13:00 +17°C° 0.4 mm 4 mps 736 mmHg 76%
14:00 +17°C° 0.4 mm 4 mps 736 mmHg 76%
15:00 +15°C° 0.1 mm 4 mps 736 mmHg 77%
16:00 +14°C° 0.1 mm 4 mps 736 mmHg 79%
17:00 +14°C° 0.1 mm 4 mps 735 mmHg 81%
18:00 +13°C° 0.1 mm 3 mps 736 mmHg 86%
19:00 +12°C° 0.1 mm 3 mps 736 mmHg 90%
20:00 +12°C° 0.1 mm 2 mps 736 mmHg 95%
21:00 +11°C° 0 mm 3 mps 736 mmHg 94%
22:00 +10°C° 0 mm 4 mps 736 mmHg 93%
23:00 +10°C° 0 mm 4 mps 737 mmHg 92%

21 May, Friday

Time Temperature Precipitation Wind Pressure Humidity
00:00 +9°C° 0.1 mm 5 mps 737 mmHg 91%
01:00 +8°C° 0.1 mm 6 mps 737 mmHg 90%
02:00 +8°C° 0.1 mm 6 mps 737 mmHg 89%
03:00 +7°C° 0.3 mm 6 mps 738 mmHg 90%
04:00 +6°C° 0.3 mm 7 mps 739 mmHg 91%
05:00 +5°C° 0.3 mm 7 mps 739 mmHg 92%
06:00 +5°C° 0.6 mm 7 mps 740 mmHg 92%
07:00 +5°C° 0.6 mm 7 mps 740 mmHg 92%
08:00 +5°C° 0.6 mm 7 mps 741 mmHg 92%
09:00 +6°C° 0.4 mm 7 mps 741 mmHg 89%
10:00 +8°C° 0.4 mm 7 mps 742 mmHg 86%
11:00 +9°C° 0.4 mm 8 mps 743 mmHg 82%
12:00 +11°C° 0 mm 7 mps 743 mmHg 75%
13:00 +12°C° 0 mm 7 mps 744 mmHg 67%
14:00 +15°C° 0 mm 7 mps 744 mmHg 60%
15:00 +14°C° 0 mm 7 mps 745 mmHg 60%
16:00 +14°C° 0 mm 6 mps 745 mmHg 61%
17:00 +13°C° 0 mm 5 mps 745 mmHg 61%
18:00 +12°C° 0 mm 5 mps 746 mmHg 64%
19:00 +10°C° 0 mm 4 mps 746 mmHg 67%
20:00 +9°C° 0 mm 3 mps 747 mmHg 71%
21:00 +8°C° 0 mm 3 mps 747 mmHg 74%
22:00 +7°C° 0 mm 3 mps 747 mmHg 77%
23:00 +6°C° 0 mm 2 mps 747 mmHg 80%

22 May, Saturday

Time Temperature Precipitation Wind Pressure Humidity
00:00 +6°C° 0 mm 2 mps 747 mmHg 83%
01:00 +6°C° 0 mm 2 mps 747 mmHg 86%
02:00 +6°C° 0 mm 2 mps 747 mmHg 89%
03:00 +6°C° 0 mm 2 mps 748 mmHg 89%
04:00 +5°C° 0 mm 2 mps 748 mmHg 90%
05:00 +5°C° 0 mm 2 mps 748 mmHg 90%
06:00 +7°C° 0 mm 2 mps 748 mmHg 81%
07:00 +9°C° 0 mm 3 mps 748 mmHg 72%
08:00 +11°C° 0 mm 4 mps 749 mmHg 63%
09:00 +12°C° 0 mm 4 mps 749 mmHg 59%
10:00 +14°C° 0 mm 4 mps 749 mmHg 54%
11:00 +15°C° 0 mm 5 mps 749 mmHg 50%
12:00 +15°C° 0 mm 4 mps 749 mmHg 48%
13:00 +17°C° 0 mm 4 mps 749 mmHg 47%
14:00 +17°C° 0 mm 4 mps 749 mmHg 45%
15:00 +17°C° 0 mm 3 mps 749 mmHg 48%
16:00 +17°C° 0 mm 3 mps 749 mmHg 51%
17:00 +17°C° 0 mm 2 mps 749 mmHg 55%
18:00 +16°C° 0 mm 2 mps 749 mmHg 59%
19:00 +14°C° 0 mm 1 mps 749 mmHg 64%
20:00 +13°C° 0 mm 1 mps 749 mmHg 69%
21:00 +12°C° 0 mm 1 mps 749 mmHg 72%
22:00 +11°C° 0 mm 1 mps 750 mmHg 74%
23:00 +9°C° 0 mm 2 mps 750 mmHg 77%
Show more